Regional Weather Roundup
Issued by NWS

Home | Current Version | Previous Version | Text Only | Print | Product List | Glossary Off
Versions: 1 2 3 4 5 6 7 8 9 10 11 12 13 14 15 16 17 18 19 20 21 22 23 24 25 26 27 28 29 30 31 32 33 34 35 36 37 38 39 40 41 42 43 44 45 46 47 48 49 50

000
ASUS45 KPSR 220210
RWRAZ

ARIZONA REGIONAL HOURLY WEATHER ROUNDUP
NATIONAL WEATHER SERVICE PHOENIX AZ
700 PM MST SUN DEC 21 2014

NOTE: FAIR INDICATES FEW OR NO CLOUDS BELOW 12,000 FEET WITH NO
SIGNIFICANT WEATHER AND/OR OBSTRUCTIONS TO VISIBILITY.

AZZ001>003-036-220300-
NORTHWEST ARIZONA

CITY           SKY/WX    TMP DP  RH WIND       PRES   REMARKS
BULLHEAD CITY  MOCLDY    55  41  58 CALM      30.08R
KINGMAN        PTCLDY    42  36  79 E5        30.10R
$$

AZZ004>008-015-016-018-220300-
NORTH CENTRAL ARIZONA

CITY           SKY/WX    TMP DP  RH WIND       PRES   REMARKS
GRAND CANYON   MOCLDY    32  29  88 CALM      30.13R
PRESCOTT       PTCLDY    48  32  53 NW5       30.09S
FLAGSTAFF      CLOUDY    43  31  62 VRB6      30.11R
PAGE           CLOUDY    42  32  67 W3        30.02S
$$

AZZ009>014-017-220300-
NORTHEAST ARIZONA

CITY           SKY/WX    TMP DP  RH WIND       PRES   REMARKS
WINSLOW        CLOUDY    42  35  76 CALM      30.06R
SAINT JOHNS    CLOUDY    39  31  72 S5        30.03S
WINDOW ROCK    CLOUDY    38  29  70 S5        30.04R WCI  34
SHOW LOW       CLOUDY    39  28  65 S9        30.09R WCI  33
$$

AZZ023-220300-
GREATER PHOENIX AREA

CITY           SKY/WX    TMP DP  RH WIND       PRES   REMARKS
PHOENIX        MOCLDY    59  40  49 W3        30.03S
BUCKEYE          N/A     52  45  76 NE6       30.04F
GLENDALE       MOCLDY    57  43  58 CALM      30.05S
LUKE AFB       PTCLDY    57  41  55 S5        30.02F
DEER VALLEY    PTCLDY    55  40  56 CALM      30.04R
SCOTTSDALE     MOCLDY    56  41  57 CALM      30.05S
MESA-FALCON    MOCLDY    55  39  54 VRB7      30.03S
MESA-GATEWAY   PTCLDY    54  43  66 CALM      30.06R
CHANDLER       MOCLDY    55  43  62 CALM      30.04S
$$

AZZ027-028-220300-
SOUTHWEST MARICOPA COUNTY AND PINAL COUNTY

CITY           SKY/WX    TMP DP  RH WIND       PRES   REMARKS
CASA GRANDE    MOCLDY    52  43  71 MISG      30.05S
GILA BEND      FAIR      55  44  68 SE5       30.05S
$$

AZZ503-504-507>509-220300-
SOUTHEAST ARIZONA

CITY           SKY/WX    TMP DP  RH WIND       PRES   REMARKS
TUCSON         PTCLDY    55  35  47 N3        30.09R
DAVIS-MONTHAN  MOCLDY    53  37  56 NW6       30.06R
RYAN FIELD       N/A     55  43  62 W3        30.09R
NOGALES        CLEAR     53  32  44 CALM      30.07R
SIERRA VISTA   PTCLDY    49  33  54 W6        30.08R
DOUGLAS        CLEAR     47  29  49 W6        30.06R
SAFFORD        PTCLDY    51  34  52 NW9       30.01R
$$

AZZ020-021-025-026-031-220300-
SOUTHWEST ARIZONA

CITY           SKY/WX    TMP DP  RH WIND       PRES   REMARKS
YUMA           MOCLDY   N/A N/A N/A N5        30.05R
$$

CAZ031-033-041-043-047-048-061-220300-
SOUTHERN CALIFORNIA

CITY           SKY/WX    TMP DP  RH WIND       PRES   REMARKS
DOWNTOWN L.A.  MOCLDY    61  54  77 CALM      30.04S
L.A. AIRPORT   CLOUDY    61  57  87 CALM      30.04S HAZE
SAN DIEGO      PTCLDY    63  55  75 NW5       30.07R
BURBANK        CLOUDY    65  49  56 NW8G16    30.04R
ONTARIO        MOCLDY    60  49  66 CALM      30.05S
RIVERSIDE      MOCLDY    61  49  64 CALM      30.05S
PALM SPRINGS   CLOUDY    62  47  57 CALM      30.07S
EL CENTRO NAS  CLOUDY    60  48  64 CALM      30.05R
IMPERIAL       CLOUDY    59  47  64 NW3       30.04R
BLYTHE         CLOUDY    57  49  74 CALM      30.05R
NEEDLES        MOCLDY    54  42  64 SW3       30.07R
$$

NVZ020-UTZ003-220300-
SOUTHERN NEVADA-UTAH

CITY           SKY/WX    TMP DP  RH WIND       PRES   REMARKS
LAS VEGAS      CLOUDY    53  39  59 S9        30.04S
SALT LAKE CITY CLOUDY    44  40  85 CALM      29.97R
$$

NMZ009-TXZ055-220300-
NEW MEXICO-WEST TEXAS

CITY           SKY/WX    TMP DP  RH WIND       PRES   REMARKS
ALBUQUERQUE    MOCLDY    45  29  53 CALM      29.94R
EL PASO        MOCLDY    59  26  28 W25       29.91R
$$


........................KEY........................
SKY/WX - SKY CONDITION/WEATHER
TMP    - TEMPERATURE IN FAHRENHEIT
DP     - DEW POINT IN FAHRENHEIT
RH     - RELATIVE HUMIDITY IN PERCENT
WIND   - DIRECTION AND SPEED IN MILES PER HOUR (MPH)
VRB    - VARIABLE WIND DIRECTION
PRES   - MEAN SEA LEVEL PRESSURE IN INCHES OF MERCURY
         F - FALLING PRESSURE   R - RISING PRESSURE
         S - STEADY PRESSURE
VSB    - VISIBILITY IN MILES
HX     - HEAT INDEX IN FAHRENHEIT
WCI    - WIND CHILL INDEX IN FAHRENHEIT
TC     - TEMPERATURE IN CELSIUS WHICH IS ALSO KNOWN AS
         TEMPERATURE IN CENTIGRADE
AFB    - AIR FORCE BASE
         LUKE AFB IS LUKE AIR FORCE BASE
         DAVIS-MONTHAN IS DAVIS-MONTHAN AIR FORCE BASE
NAS    - NAVAL AIR STATION
         EL CENTRO NAS IS EL CENTRO NAVAL AIR STATION
N/A    - NOT AVAILABLE



USA.gov is the U.S. government's official web portal to all federal, state and local government web resources and services.